This is the latest recevied weather packets stored in our database for station/object KF0EZB. If no packets are shown the sender has not sent any weather packets the latest 10 day(s).
| Time | Temp. | Humidity | Pressure | Rain* | Wind** | Luminosity | Snow |
|---|---|---|---|---|---|---|---|
| 1777819687 | 21.67° C | 37% | 1013.9 hPa | 0 mm | - | 567 W/m² | - |
| 1777819386 | 21.67° C | 38% | 1014 hPa | 0 mm | - | 548 W/m² | - |
| 1777819082 | 21.11° C | 40% | 1014 hPa | 0 mm | - | 507 W/m² | - |
| 1777818779 | 20.56° C | 40% | 1014.1 hPa | 0 mm | - | 498 W/m² | - |
| 1777818474 | 20° C | 41% | 1014.2 hPa | 0 mm | - | 466 W/m² | - |
| 1777818172 | 20° C | 42% | 1014.4 hPa | 0 mm | - | 416 W/m² | - |
| 1777817868 | 19.44° C | 44% | 1014.2 hPa | 0 mm | - | 385 W/m² | - |
| 1777817566 | 18.89° C | 46% | 1014.2 hPa | 0 mm | - | 370 W/m² | - |
| 1777817262 | 18.33° C | 47% | 1014.2 hPa | 0 mm | - | 377 W/m² | - |
| 1777816960 | 17.78° C | 48% | 1014.1 hPa | 0 mm | - | 327 W/m² | - |
| 1777816656 | 17.22° C | 50% | 1014.3 hPa | 0 mm | - | 293 W/m² | - |
| 1777816353 | 16.67° C | 51% | 1014.4 hPa | 0 mm | - | 69 W/m² | - |
| 1777816051 | 16.67° C | 52% | 1014.5 hPa | 0 mm | - | 288 W/m² | - |
| 1777815748 | 16.11° C | 54% | 1014.2 hPa | 0 mm | - | 269 W/m² | - |
| 1777815446 | 15° C | 57% | 1014.2 hPa | 0 mm | - | 258 W/m² | - |
| 1777815143 | 14.44° C | 60% | 1014.2 hPa | 0 mm | - | 225 W/m² | - |
| 1777814839 | 13.89° C | 61% | 1014.6 hPa | 0 mm | - | 194 W/m² | - |
| 1777814535 | 13.33° C | 62% | 1014.5 hPa | 0 mm | - | 196 W/m² | - |
| 1777814233 | 13.33° C | 63% | 1014.5 hPa | 0 mm | - | 154 W/m² | - |
| 1777813929 | 12.78° C | 65% | 1014.6 hPa | 0 mm | - | 77 W/m² | - |
| 1777813627 | 12.22° C | 66% | 1014.5 hPa | 0 mm | - | 143 W/m² | - |
| 1777813324 | 12.22° C | 66% | 1014.6 hPa | 0 mm | - | 124 W/m² | - |
| 1777813021 | 11.67° C | 67% | 1014.5 hPa | 0 mm | - | 106 W/m² | - |
| 1777812719 | 11.67° C | 68% | 1014.6 hPa | 0 mm | - | 93 W/m² | - |
| 1777812415 | 11.11° C | 69% | 1014.3 hPa | 0 mm | - | 82 W/m² | - |
* Rain latest hour (hover to see other rain measurements)
** Current wind speed in m/s (hover to see current wind gust speed)